Temperature
10 11 11 11 12 11 11 12 12 13 14 16 17 15 15 16 17 17 17 17 17 17 17 16 15 14 12 10 8 6 4 3 2 2 0 -1 -1 -2 -3 -3 -4 -4 -5 -5
10 11 10 10 11 12 12 11 12 13 14 16 16 15 15 15 15 16 17 17 17 17 16 16 15 14 13 11 9 6 4 3 2 1 0 -1 -1 -2 -2 -3 -4 -4 -5 -5
8 9 10 10 12 12 11 10 11 12 14 14 13 12 13 15 16 16 17 17 17 17 16 16 15 14 13 12 9 7 5 3 2 1 0 -1 -1 -2 -2 -3 -4 -4 -5 -5
6 9 9 13 13 12 12 12 11 12 13 12 12 14 15 16 16 17 17 17 17 16 16 15 15 14 13 11 9 7 5 3 2 1 0 -1 -1 -2 -2 -3 -3 -4 -4 -5
6 7 8 10 12 12 11 11 12 12 13 13 13 13 16 19 18 17 17 16 16 15 15 15 14 13 12 11 9 7 5 4 3 1 0 -1 -1 -1 -2 -3 -3 -4 -4 -5
5 6 8 11 13 13 13 12 14 12 11 12 12 11 14 17 17 16 16 15 15 14 14 14 13 12 11 10 9 8 6 5 3 2 0 -0 -1 -1 -2 -3 -3 -4 -4 -5
5 5 8 10 11 12 13 14 15 15 15 14 12 13 15 15 15 15 15 14 14 14 13 13 12 12 11 10 9 8 6 4 3 1 0 -0 -1 -2 -2 -3 -3 -4 -4 -5
4 5 7 10 10 11 13 15 15 15 15 14 14 14 14 14 14 14 14 13 13 13 13 13 12 11 10 10 9 7 5 4 3 1 0 -1 -1 -2 -2 -3 -3 -3 -4 -4
7 9 11 12 12 14 14 14 15 14 14 13 13 13 13 13 13 13 12 12 12 12 12 12 11 11 10 10 8 6 5 4 2 1 0 -1 -1 -2 -2 -3 -3 -3 -4 -4
6 7 10 12 13 14 14 14 14 13 13 12 12 12 12 12 12 11 11 11 11 11 11 11 11 10 10 8 7 5 4 3 2 1 0 -1 -1 -2 -2 -2 -3 -3 -4 -4
8 8 10 12 13 13 13 13 12 12 12 11 11 11 11 10 10 10 10 10 10 10 10 10 10 10 9 7 6 5 3 2 1 1 -0 -1 -1 -1 -2 -2 -3 -3 -4 -5
10 11 10 11 12 11 11 11 11 10 10 10 10 9 9 9 9 9 9 9 9 9 9 9 9 9 8 7 6 4 3 1 1 0 -0 -1 -1 -2 -2 -3 -3 -4 -4 -4
10 10 10 10 10 10 10 9 9 9 9 8 8 8 7 7 8 8 8 8 8 8 9 9 8 8 7 6 5 3 2 1 0 -0 -0 -1 -1 -2 -2 -3 -3 -4 -4 -5
9 9 9 9 9 9 8 8 8 8 7 7 7 7 6 6 7 7 7 7 7 7 8 8 8 7 6 5 4 3 1 -0 -1 -1 -0 -1 -1 -1 -2 -3 -3 -4 -4 -5
8 8 8 8 7 7 7 7 7 6 6 6 6 6 6 5 5 6 6 6 6 6 7 7 7 7 5 4 3 2 0 -1 -2 -2 -1 -1 -1 -2 -2 -3 -3 -4 -4 -5
7 7 7 6 6 6 6 5 5 5 5 5 5 5 4 4 4 4 5 5 5 5 6 6 6 6 4 3 2 1 -1 -2 -3 -3 -2 -2 -2 -2 -2 -3 -3 -4 -4 -5
6 5 5 5 5 4 4 4 3 3 4 4 3 3 3 3 3 3 3 3 3 4 4 5 4 4 4 3 1 -0 -1 -2 -4 -5 -4 -3 -2 -2 -2 -3 -3 -4 -4 -5
5 5 4 4 4 4 4 4 4 4 4 3 3 2 2 2 1 1 2 2 2 3 4 4 3 3 3 2 0 -1 -2 -3 -5 -6 -5 -4 -3 -2 -2 -3 -3 -4 -4 -5
4 4 4 4 3 3 3 3 3 3 3 2 1 1 1 1 1 1 1 1 1 2 3 3 2 2 2 1 -0 -2 -3 -3 -5 -6 -5 -5 -4 -3 -3 -3 -3 -4 -4 -5
4 4 3 3 3 3 3 3 3 3 2 2 1 1 1 1 0 0 0 0 1 1 1 1 1 1 1 0 -1 -2 -3 -4 -5 -6 -6 -6 -5 -3 -3 -3 -3 -4 -4 -5
3 3 3 3 3 3 3 3 2 2 2 1 1 0 0 0 -0 -0 -1 -1 1 1 0 1 1 1 1 -0 -2 -3 -4 -5 -6 -7 -7 -7 -6 -4 -3 -3 -4 -4 -4 -4
2 2 2 2 2 2 2 2 2 1 1 1 1 0 -0 -0 -0 -1 -1 -1 -0 -0 -0 0 0 0 -0 -1 -2 -4 -5 -6 -7 -7 -7 -7 -6 -4 -4 -3 -4 -4 -4 -4
2 2 2 2 1 1 1 2 1 1 0 0 0 -0 -0 -1 -1 -1 -1 -0 -1 -1 -1 -0 -0 -0 -1 -2 -3 -4 -6 -6 -7 -8 -8 -7 -6 -5 -4 -3 -4 -4 -4 -4
1 1 1 1 0 0 0 1 1 0 0 -0 -0 -0 -1 -1 -1 -1 -1 -1 -1 -1 -1 -1 -1 -1 -1 -2 -4 -5 -6 -7 -8 -8 -8 -8 -7 -5 -4 -4 -4 -4 -4 -4
-0 -0 -0 -1 -1 -1 -0 -0 -0 -0 -1 -1 -1 -1 -1 -1 -1 -1 -1 -1 -0 -1 -1 -1 -1 -1 -2 -3 -4 -5 -6 -7 -8 -8 -8 -8 -7 -6 -5 -4 -4 -3 -4 -4
-1 -1 -1 -1 -1 -1 -1 -1 -2 -2 -2 -2 -2 -1 -1 -0 -0 -0 -0 -0 -0 -1 -1 -1 -1 -1 -2 -3 -4 -5 -6 -7 -8 -8 -8 -8 -8 -6 -5 -4 -4 -4 -4 -4
-2 -2 -2 -2 -1 -1 -2 -2 -2 -2 -2 -3 -3 -2 -1 -1 -0 -0 -0 -0 -0 -0 -1 -1 -1 -2 -3 -4 -5 -5 -6 -7 -8 -8 -8 -8 -8 -6 -5 -4 -4 -4 -4 -4
Wind_Speed
10 11 7 9 13 11 15 15 16 19 23 30 26 15 10 10 11 12 12 11 12 13 13 12 13 15 16 16 16 16 16 16 15 13 11 9 9 9 8 8 8 8 8 9
7 9 10 10 18 21 18 15 19 25 27 29 21 12 11 12 12 12 12 12 13 13 12 14 16 17 17 17 17 16 17 16 13 11 11 11 10 10 9 8 7 7 8 9
7 6 6 9 15 17 10 10 11 17 20 18 14 13 11 11 11 12 13 13 13 13 14 15 17 17 19 18 16 17 17 15 13 13 13 12 11 10 10 8 7 8 8 9
4 1 10 11 6 8 10 13 15 16 18 15 13 11 11 12 13 14 13 12 12 11 12 13 13 14 14 14 16 17 16 15 14 14 13 12 11 11 10 8 7 8 9 9
4 6 11 10 10 7 8 11 12 17 20 15 8 7 9 9 7 11 11 11 11 10 10 9 11 12 13 15 16 17 18 17 16 15 14 13 13 13 10 8 8 8 8 9
5 6 10 10 5 1 1 9 8 5 9 7 2 5 8 8 7 8 10 9 9 8 7 8 9 11 14 16 18 20 20 18 17 16 16 15 15 12 9 8 8 8 8 7
9 9 12 10 4 3 5 9 5 2 4 4 5 9 10 11 11 11 12 13 11 9 9 9 9 13 16 17 21 19 15 15 15 16 16 15 12 11 9 8 7 7 7 7
8 8 12 8 7 9 10 5 6 8 7 8 10 12 13 13 13 14 14 13 12 10 11 9 10 14 17 20 17 13 14 16 16 16 14 13 12 11 9 9 8 7 7 7
13 13 7 6 10 8 6 9 11 10 12 12 12 14 15 13 13 13 13 13 11 10 12 10 11 15 19 17 13 15 16 17 16 16 14 13 13 12 9 8 7 7 6 6
9 12 13 12 10 12 13 14 13 13 14 13 15 17 16 15 13 12 12 12 10 10 12 13 12 16 18 12 13 16 17 17 15 15 15 13 11 11 9 9 8 7 7 6
14 11 11 11 11 11 11 11 13 15 14 13 14 15 14 12 12 11 11 11 10 10 13 15 12 14 14 12 15 17 16 15 15 14 14 13 12 11 11 10 9 8 7 6
24 17 15 15 13 15 16 15 15 14 13 11 10 10 10 10 10 10 11 11 11 11 13 14 11 12 12 14 16 17 15 15 13 12 12 11 11 9 15 13 15 16 14 10
25 21 20 18 14 12 12 12 11 9 8 8 8 8 9 9 9 11 12 13 13 13 14 13 11 11 11 14 16 17 16 15 13 13 13 12 12 11 9 11 15 15 15 15
16 15 16 15 13 10 7 6 5 6 7 7 7 8 9 9 11 13 14 14 14 14 15 12 11 11 10 13 16 17 15 17 16 13 13 13 12 11 10 10 9 7 9 13
13 12 12 9 5 4 4 5 6 8 9 10 9 10 11 12 14 16 16 14 13 14 14 12 12 12 8 13 16 16 15 12 13 12 12 12 11 11 10 10 9 6 4 6
6 4 3 1 3 4 5 6 6 9 10 10 11 13 14 14 15 16 16 13 12 15 15 13 14 12 8 12 15 13 14 20 17 12 12 12 11 11 11 10 9 8 8 7
4 1 1 2 3 4 5 6 7 9 11 12 13 14 14 15 16 16 16 14 13 14 14 13 14 11 8 12 14 12 11 15 23 15 12 13 13 12 12 11 10 9 8 9
5 5 3 0 3 6 8 9 10 11 12 13 14 13 14 15 16 17 17 16 16 16 15 11 11 9 8 10 12 10 11 11 12 11 12 12 12 12 11 11 11 10 7 9
4 2 2 4 6 7 8 10 12 12 13 13 13 14 15 15 15 16 15 14 15 17 14 11 14 10 8 12 14 10 11 12 12 12 11 16 14 11 11 11 11 10 9 9
3 4 6 7 8 8 10 11 12 13 13 12 13 15 16 15 15 15 14 14 13 12 12 13 12 9 7 10 15 9 12 14 14 13 13 12 12 12 12 12 11 10 10 9
7 7 8 9 10 11 11 12 13 14 14 13 13 15 16 16 15 13 13 14 14 12 11 15 10 7 6 9 15 10 12 13 14 13 14 13 13 12 12 12 11 11 10 10
7 8 10 11 13 14 13 12 13 14 15 14 14 14 15 15 14 13 12 12 13 16 12 9 7 10 10 12 10 11 13 14 13 12 13 13 13 12 12 12 12 11 10 10
9 10 11 13 14 16 16 14 13 13 14 15 15 16 15 15 12 13 14 11 9 16 13 9 13 16 15 10 9 11 13 14 14 13 13 13 12 12 12 13 12 11 10 10
11 11 12 13 13 14 16 16 13 12 13 14 14 14 14 13 12 10 11 17 20 21 13 14 19 19 15 7 9 11 12 13 13 12 13 12 11 11 11 11 11 10 10 11
12 12 12 12 13 13 13 14 13 13 13 11 13 13 12 10 12 13 12 13 19 20 13 15 20 18 11 7 10 12 12 13 13 12 12 12 12 11 11 11 11 11 11 10
12 12 12 12 12 12 11 11 11 12 12 13 12 11 11 10 11 12 12 13 15 18 14 11 10 11 8 8 10 12 12 14 15 14 12 12 12 12 11 11 12 11 10 10
11 11 10 10 10 10 9 10 11 12 12 13 15 14 13 12 12 12 13 12 12 11 10 9 8 7 7 7 9 11 12 12 12 12 12 12 11 11 11 12 11 10 10 10
Wind_Direction
255 263 244 242 250 231 219 226 241 257 259 270 276 283 275 268 274 275 267 251 236 231 226 215 209 207 205 202 196 192 192 197 203 199 195 196 202 209 215 224 239 247 258 266
272 264 249 253 257 252 242 237 243 260 269 268 278 287 279 275 274 272 267 257 246 238 230 220 215 211 206 204 198 192 195 200 197 189 191 198 204 210 217 228 240 250 258 266
266 288 325 267 243 241 227 216 216 246 258 273 283 279 271 269 267 262 265 265 257 245 234 228 219 211 208 203 193 193 198 196 191 189 195 201 206 211 220 228 238 251 259 265
262 322 242 245 245 227 234 247 229 245 261 269 268 281 274 262 262 269 270 269 266 256 244 233 220 210 204 193 193 196 198 195 191 190 195 198 204 216 222 224 234 248 259 265
205 247 270 287 276 223 221 273 243 244 263 276 303 313 297 276 246 249 262 268 269 263 251 237 216 200 190 193 196 199 200 198 194 190 192 197 208 218 219 220 234 245 255 262
195 226 253 253 264 165 132 287 285 241 265 295 34 324 288 298 309 290 285 281 279 277 257 237 212 184 190 198 201 206 204 199 193 190 193 200 210 214 213 216 231 245 256 256
218 235 260 257 253 147 216 253 306 334 279 265 229 243 266 294 298 290 289 286 283 272 256 241 201 185 199 205 212 210 197 190 189 191 195 200 204 208 209 215 227 238 254 261
193 216 255 235 159 197 232 299 312 310 301 292 279 277 282 286 286 288 289 288 281 268 260 241 197 194 208 216 213 192 186 188 190 191 192 196 199 204 207 211 222 238 251 263
203 222 252 194 211 246 288 289 289 292 297 298 291 288 290 288 286 287 284 283 276 262 264 248 209 204 218 220 195 183 187 191 191 189 192 192 194 199 202 206 216 232 240 256
245 254 260 264 255 261 263 265 276 284 289 292 288 288 291 291 290 289 285 282 279 269 262 258 228 217 224 210 184 185 191 193 190 189 192 193 195 197 200 203 209 221 231 244
260 265 277 262 260 268 278 285 288 289 289 288 286 289 289 293 292 290 288 286 281 267 263 262 244 226 220 198 185 190 194 193 191 192 190 193 198 201 202 204 202 207 218 225
267 271 273 280 280 285 288 289 292 297 301 299 295 295 301 300 296 296 297 296 294 284 275 272 257 236 214 197 191 192 195 194 192 190 189 191 193 203 218 213 222 227 224 220
261 269 272 281 284 286 290 295 300 306 312 318 319 316 315 307 303 304 303 301 297 292 287 281 266 244 213 196 194 197 196 192 190 189 189 190 189 190 198 215 223 227 230 233
257 269 276 280 287 299 306 316 333 343 337 328 318 316 315 308 307 308 304 300 298 297 295 288 274 254 215 197 197 200 197 194 190 189 189 189 189 189 188 188 198 215 225 229
260 261 267 281 306 341 357 2 1 346 334 327 319 314 311 308 305 303 301 299 299 298 296 292 281 266 215 196 199 200 197 195 191 186 187 187 185 183 184 187 192 190 184 215
271 292 308 5 24 13 8 2 343 323 314 306 304 303 300 297 296 297 298 296 298 300 300 295 284 270 220 199 199 199 199 200 191 186 185 184 183 181 183 186 189 192 196 196
247 272 43 36 5 340 323 306 296 293 294 295 295 296 298 299 301 302 302 301 295 292 290 286 284 275 226 201 197 198 194 199 197 191 189 188 185 185 184 184 189 194 197 194
113 122 124 148 293 298 298 295 290 290 290 289 292 295 297 299 300 301 302 303 305 303 297 282 277 273 232 203 197 193 190 193 192 188 190 191 189 185 182 184 188 190 186 196
120 150 242 270 274 275 280 287 291 292 293 295 296 297 296 294 293 294 297 299 301 302 301 298 301 287 237 210 198 191 188 190 191 189 190 195 192 185 183 184 186 186 184 186
265 270 274 278 279 278 285 290 294 297 298 297 297 298 298 296 295 296 296 293 288 281 283 292 298 282 244 217 205 192 190 191 192 190 191 194 190 186 184 184 183 182 184 186
284 287 292 297 300 297 295 297 302 303 302 299 295 294 294 294 294 294 294 297 293 288 288 294 293 274 242 222 209 195 193 193 194 192 192 194 192 188 185 183 183 184 185 185
290 295 301 307 309 309 307 304 301 300 299 297 294 291 293 295 296 293 281 280 285 292 297 288 281 274 258 232 208 197 196 195 195 193 193 194 192 188 186 184 183 184 183 180
288 292 298 302 302 303 304 301 295 293 293 294 295 295 293 292 293 294 297 290 288 293 296 283 284 284 273 236 208 200 198 197 196 195 194 194 193 189 185 183 183 182 178 176
286 288 288 290 294 296 297 296 293 290 287 287 285 282 283 291 292 281 277 288 296 296 292 286 290 287 274 228 205 200 198 198 196 194 193 192 191 187 183 181 180 179 176 172
275 278 281 285 289 290 288 291 294 293 290 290 286 282 279 276 281 289 288 287 290 295 291 289 290 287 271 228 205 199 196 196 195 192 192 190 188 186 182 180 179 177 175 174
270 274 276 273 276 281 284 286 289 293 296 298 297 293 289 287 282 283 286 284 283 288 288 282 279 276 261 234 206 196 192 193 197 196 190 187 184 182 181 180 176 176 174 171
273 275 278 279 277 272 272 276 283 288 291 294 297 298 295 294 292 289 287 287 287 285 281 277 271 261 255 234 205 192 187 187 188 187 184 183 181 181 180 175 176 173 169 167
Height
1547 1541 1542 1540 1536 1535 1535 1528 1526 1507 1500 1482 1474 1473 1472 1470 1468 1465 1461 1459 1457 1456 1454 1453 1451 1450 1449 1449 1450 1452 1454 1456 1459 1462 1464 1465 1465 1466 1465 1464 1462 1460 1457 1453
1544 1536 1537 1536 1527 1520 1519 1517 1511 1500 1489 1472 1469 1470 1467 1464 1462 1458 1455 1453 1452 1450 1448 1446 1445 1443 1442 1441 1441 1443 1445 1447 1452 1455 1457 1458 1459 1459 1459 1458 1456 1454 1451 1448
1548 1538 1533 1531 1511 1505 1506 1502 1500 1495 1478 1467 1467 1465 1463 1459 1457 1454 1451 1449 1447 1445 1443 1441 1439 1437 1434 1433 1434 1435 1436 1440 1444 1447 1449 1451 1452 1452 1452 1451 1450 1448 1445 1442
1549 1538 1538 1507 1494 1494 1494 1488 1486 1480 1470 1465 1463 1461 1458 1455 1453 1450 1448 1447 1444 1442 1439 1436 1433 1430 1428 1426 1425 1426 1428 1431 1435 1438 1441 1443 1444 1445 1445 1445 1444 1442 1440 1437
1549 1544 1524 1507 1492 1490 1490 1484 1473 1471 1465 1462 1462 1459 1454 1452 1451 1449 1447 1445 1442 1438 1435 1431 1427 1423 1421 1418 1417 1417 1418 1421 1425 1429 1432 1434 1436 1437 1438 1438 1437 1436 1434 1431
1545 1542 1526 1499 1487 1484 1486 1485 1466 1465 1464 1463 1463 1465 1456 1452 1450 1447 1444 1441 1437 1432 1428 1424 1420 1416 1413 1410 1408 1407 1408 1412 1416 1420 1423 1426 1428 1430 1431 1431 1431 1430 1428 1426
1537 1534 1511 1491 1484 1485 1491 1478 1465 1463 1462 1461 1460 1458 1452 1448 1445 1442 1438 1434 1430 1425 1420 1416 1412 1408 1404 1401 1398 1399 1402 1405 1408 1412 1415 1418 1421 1423 1424 1424 1424 1424 1423 1421
1530 1531 1510 1480 1483 1483 1474 1466 1464 1462 1460 1457 1454 1449 1445 1441 1437 1434 1430 1426 1421 1416 1412 1408 1404 1399 1394 1391 1391 1392 1393 1395 1399 1403 1406 1409 1412 1415 1417 1418 1418 1418 1417 1415
1503 1492 1479 1476 1474 1471 1469 1466 1462 1459 1456 1453 1448 1442 1438 1433 1429 1425 1421 1417 1413 1408 1403 1399 1394 1389 1385 1383 1383 1382 1383 1385 1388 1393 1397 1401 1404 1407 1409 1411 1411 1412 1411 1410
1490 1480 1474 1471 1469 1467 1465 1461 1458 1455 1452 1448 1442 1436 1431 1426 1421 1417 1413 1409 1404 1399 1394 1389 1385 1380 1376 1375 1374 1373 1373 1375 1379 1383 1387 1392 1396 1400 1402 1404 1405 1406 1406 1405
1477 1472 1468 1464 1463 1461 1458 1456 1452 1449 1445 1440 1434 1428 1424 1419 1414 1410 1405 1401 1397 1391 1385 1380 1376 1371 1368 1366 1365 1364 1364 1367 1370 1374 1379 1384 1388 1392 1395 1398 1399 1400 1400 1400
1465 1464 1462 1457 1457 1455 1451 1447 1444 1440 1435 1432 1428 1422 1417 1413 1408 1403 1398 1393 1388 1382 1376 1371 1366 1362 1359 1357 1355 1355 1355 1357 1361 1365 1370 1376 1381 1385 1389 1392 1393 1394 1395 1395
1457 1455 1453 1449 1448 1446 1443 1440 1437 1433 1429 1425 1422 1418 1412 1407 1402 1397 1392 1386 1380 1374 1368 1363 1358 1353 1350 1348 1346 1345 1346 1348 1352 1356 1362 1367 1372 1377 1381 1385 1387 1388 1389 1389
1449 1448 1444 1442 1440 1439 1436 1433 1431 1428 1424 1421 1417 1412 1407 1401 1396 1390 1385 1379 1373 1367 1361 1356 1350 1346 1343 1340 1338 1337 1338 1340 1342 1347 1352 1358 1363 1369 1373 1377 1379 1381 1383 1384
1441 1440 1437 1436 1434 1433 1431 1428 1426 1423 1419 1415 1411 1406 1401 1394 1388 1382 1377 1372 1366 1360 1354 1349 1343 1339 1336 1332 1329 1329 1330 1331 1334 1338 1344 1350 1356 1361 1366 1370 1372 1375 1377 1378
1435 1433 1432 1430 1430 1429 1427 1424 1422 1418 1414 1409 1404 1399 1393 1387 1380 1374 1369 1364 1357 1351 1346 1341 1336 1332 1328 1324 1321 1321 1321 1324 1327 1330 1334 1340 1347 1353 1358 1362 1365 1368 1370 1372
1429 1428 1428 1427 1427 1426 1424 1421 1418 1413 1408 1402 1397 1390 1384 1378 1371 1365 1359 1355 1349 1343 1339 1334 1329 1324 1320 1316 1314 1313 1314 1316 1320 1322 1326 1331 1338 1344 1349 1354 1358 1361 1364 1367
1426 1427 1427 1426 1424 1422 1419 1415 1411 1406 1401 1395 1388 1382 1376 1370 1363 1357 1351 1346 1340 1335 1332 1327 1321 1316 1312 1309 1307 1306 1307 1309 1313 1314 1318 1324 1330 1336 1342 1347 1351 1355 1359 1362
1426 1426 1424 1423 1420 1417 1413 1409 1404 1399 1393 1386 1380 1374 1368 1362 1357 1350 1345 1339 1333 1328 1324 1320 1315 1310 1306 1302 1300 1299 1300 1302 1306 1309 1312 1318 1323 1329 1334 1340 1344 1349 1353 1356
1424 1423 1420 1417 1414 1411 1406 1401 1396 1390 1385 1379 1372 1366 1360 1354 1349 1343 1338 1332 1328 1323 1318 1313 1309 1304 1300 1296 1294 1293 1293 1295 1299 1302 1306 1311 1316 1321 1327 1333 1338 1342 1347 1350
1420 1417 1414 1410 1406 1402 1398 1393 1387 1381 1376 1371 1365 1358 1352 1346 1342 1336 1330 1324 1319 1316 1311 1307 1302 1298 1294 1290 1288 1286 1287 1289 1292 1295 1299 1304 1309 1315 1321 1326 1332 1336 1341 1345
1414 1411 1407 1403 1398 1393 1389 1385 1379 1373 1367 1362 1357 1351 1345 1338 1333 1328 1323 1319 1313 1309 1305 1300 1296 1292 1287 1284 1281 1279 1280 1282 1285 1289 1293 1297 1303 1308 1314 1320 1325 1330 1335 1340
1409 1405 1401 1396 1391 1385 1380 1376 1371 1365 1360 1354 1349 1344 1338 1332 1327 1322 1314 1310 1306 1302 1297 1293 1289 1285 1281 1277 1274 1273 1273 1275 1278 1282 1286 1291 1296 1302 1308 1314 1320 1325 1330 1335
1401 1397 1393 1388 1383 1377 1370 1366 1362 1357 1352 1346 1341 1337 1331 1325 1319 1315 1310 1304 1299 1294 1290 1285 1281 1277 1273 1270 1267 1266 1267 1269 1272 1276 1281 1285 1291 1296 1302 1309 1315 1320 1325 1330
1392 1388 1383 1378 1373 1367 1362 1357 1352 1347 1342 1337 1332 1328 1324 1319 1313 1307 1302 1296 1291 1287 1282 1277 1273 1269 1265 1262 1259 1259 1260 1262 1266 1270 1275 1279 1285 1290 1297 1304 1310 1315 1321 1326
1381 1377 1372 1368 1364 1359 1354 1349 1344 1339 1334 1328 1323 1319 1315 1310 1305 1300 1294 1289 1284 1279 1274 1269 1265 1261 1257 1254 1252 1251 1253 1256 1261 1265 1269 1274 1279 1285 1292 1299 1305 1311 1317 1322
1369 1365 1361 1356 1353 1350 1346 1341 1336 1331 1327 1321 1315 1310 1306 1302 1297 1292 1287 1282 1277 1272 1267 1262 1257 1253 1249 1246 1245 1245 1247 1250 1255 1260 1264 1269 1274 1281 1287 1295 1301 1307 1313 1318